Location: Bridalveil Moraine
(37.7171°N, 119.6568°W)
Time: 05:27:21
(UTC+00:00)

BlueWalker 3 - Pass Details

Date: 14 August 2024
Orbit: 476 x 487 km, 53.2° (Epoch: 09 September)

Event Time Altitude Azimuth Distance (km) Brightness Sun altitude
Exits shadow 09:47:15 12° 359° (N) 1,566 5.0 -32.7°
Drops below altitude 10° 09:47:59 10° 9° (N) 1,686 5.3 -32.6°
Sets 09:51:10 0° 37° (NE) 2,572 6.6 -32.3°
